Lid_Strength_Index
11 14 16 14 12 11 12 13 14 12 10 12 12 12 11 10 10 11 10 9 9 10 8 8 3 3 2 3 3 2 2 2 1 2 2 2 2 1 2 1 1 0 -0 0
11 14 11 10 11 11 12 13 14 12 11 11 12 12 11 10 10 10 10 9 9 9 10 9 4 3 3 3 3 3 2 3 1 2 2 2 2 1 1 1 1 0 -0 -0
12 10 8 9 11 12 12 13 13 13 11 10 12 14 13 11 10 10 10 9 8 9 10 10 8 5 3 3 3 3 3 3 2 2 2 2 1 1 1 1 1 0 0 0
11 8 10 10 11 10 13 10 10 11 12 17 12 18 15 13 13 11 10 10 9 8 9 10 10 7 4 4 3 2 2 3 2 2 2 3 3 3 2 1 1 1 1 1
13 12 11 12 11 10 12 9 10 11 13 15 15 17 14 13 13 12 11 10 10 8 8 9 9 8 4 3 3 3 3 3 2 2 2 3 3 2 1 1 1 1 0 1
11 8 9 10 8 9 9 11 12 13 15 19 15 16 16 13 13 12 11 10 9 9 9 8 8 7 5 3 3 2 2 2 2 1 1 2 2 2 2 2 2 2 1 1
11 11 10 8 11 9 10 14 19 21 21 20 14 17 14 10 10 10 9 10 9 9 9 8 9 9 4 3 3 3 3 3 2 2 2 2 2 2 2 2 2 2 2 1
16 17 11 8 11 12 12 13 19 23 23 20 15 18 14 9 7 7 8 8 9 9 10 9 8 9 7 3 3 3 3 3 2 2 2 2 2 2 2 2 2 1 1 2
16 16 9 8 8 9 13 15 11 16 17 19 17 14 10 8 8 8 8 8 9 9 8 8 8 9 8 5 3 3 3 3 2 2 2 2 1 2 2 1 1 2 2 2
12 17 10 10 8 9 11 10 16 16 22 23 18 17 15 12 11 9 8 8 8 7 6 5 5 7 9 7 3 3 2 3 2 2 2 2 2 1 1 1 2 2 3 3
10 13 13 10 13 14 14 14 14 14 16 20 20 18 11 10 10 10 9 8 8 7 6 6 5 5 8 7 3 3 3 3 3 2 2 2 2 2 2 3 2 3 3 3
10 13 16 15 10 9 11 14 14 18 19 16 17 17 10 10 10 10 9 8 7 6 6 6 5 6 8 8 3 3 3 3 2 2 2 2 2 2 3 3 3 3 4 4
10 14 18 16 14 11 13 12 13 13 14 17 20 17 10 9 9 8 9 8 7 6 6 6 5 5 8 7 4 3 3 3 2 2 2 2 3 4 4 6 7 8 7 8
8 13 15 18 16 13 15 13 13 14 17 17 16 15 11 10 10 9 8 8 7 7 6 6 6 5 7 6 4 3 3 3 2 2 3 3 5 7 8 8 9 9 10 11
10 15 13 13 12 12 13 13 13 15 14 17 14 14 11 10 10 8 8 8 8 7 7 6 6 6 7 6 4 3 3 3 2 4 6 6 7 8 9 10 10 10 11 11
11 17 15 15 12 12 14 12 12 13 13 13 13 13 10 9 9 9 8 8 8 8 7 6 6 6 7 4 4 4 3 4 6 8 9 9 10 10 11 11 11 11 12 12
12 13 15 18 13 14 17 14 13 13 12 13 15 12 10 10 10 9 8 8 8 7 7 6 6 5 5 4 4 4 5 5 7 9 9 10 10 11 11 12 12 13 13 12
13 14 15 17 16 20 14 10 11 12 12 11 11 10 9 9 8 8 7 7 7 7 8 7 7 6 6 6 5 6 7 8 8 9 10 10 11 11 12 13 13 12 13 14
12 14 17 18 18 15 14 12 13 13 13 10 11 10 9 8 8 10 9 8 8 7 8 8 7 7 7 7 6 7 8 8 9 9 10 10 10 12 12 12 13 14 13 14
11 13 15 16 19 21 14 12 10 10 16 10 10 10 10 9 13 12 11 10 10 9 9 9 8 8 8 7 8 8 8 10 10 9 9 10 10 11 11 12 13 13 14 14
14 15 18 18 18 15 12 12 11 17 15 11 10 9 10 12 11 10 10 10 10 9 10 9 8 9 9 9 8 10 9 10 9 9 9 9 9 10 11 12 13 13 14 14
15 16 16 16 19 20 12 13 14 12 10 10 8 9 10 10 10 10 11 10 10 10 10 9 10 10 10 9 10 10 10 9 8 9 9 10 10 10 10 12 13 13 13 14
15 14 16 16 16 12 11 12 9 9 10 9 8 8 9 10 11 10 11 11 10 10 10 10 10 10 10 10 10 12 11 10 10 10 11 10 10 11 10 12 12 13 13 14
12 11 14 13 12 11 10 9 8 7 8 7 8 8 9 10 10 10 11 11 11 11 11 10 10 11 10 9 10 11 11 11 12 13 13 13 13 12 12 12 12 13 13 13
13 12 13 13 12 10 11 10 9 8 8 8 8 8 9 9 10 10 10 11 11 11 10 10 10 10 10 10 10 10 11 11 13 13 14 14 14 14 15 15 14 13 13 12
11 12 14 15 11 11 12 10 9 9 9 8 8 8 8 8 9 9 10 11 11 11 10 11 11 11 10 10 11 11 11 12 14 15 15 15 15 14 14 14 14 14 14 14